H1 CPF 2 NER 2023 12 25 9 359 01 glonass144 H2 2207501 9144 52984 2023 12 25 0 0 0 2023 12 28 23 45 0 900 1 1 0 0 0 1 H9 10 0 60303 0.00000 0 7830008.678 -10088341.420 22110550.396 10 0 60303 900.00000 0 8696167.285 -7462290.039 22819761.972 10 0 60303 1800.00000 0 9775365.376 -4851555.748 23087230.852 10 0 60303 2700.00000 0 11045012.080 -2322045.559 22907849.775 10 0 60303 3600.00000 0 12471297.618 65284.309 22285126.472 10 0 60303 4500.00000 0 14010499.630 2256724.596 21231113.942 10 0 60303 5400.00000 0 15610719.463 4207800.863 19766180.285 10 0 60303 6300.00000 0 17213977.333 5884872.523 17918622.136 10 0 60303 7200.00000 0 18758580.498 7266278.205 15724128.326 10 0 60303 8100.00000 0 20181667.133 8342981.120 13225102.964 10 0 60303 9000.00000 0 21421821.059 9118688.344 10469859.599 10 0 60303 9900.00000 0 22421649.023 9609439.486 7511700.590 10 0 60303 10800.00000 0 23130213.262 9842681.976 4407898.110 10 0 60303 11700.00000 0 23505217.478 9855871.580 1218595.272 10 0 60303 12600.00000 0 23514853.996 9694656.577 -1994352.208 10 0 60303 13500.00000 0 23139233.521 9410721.710 -5168571.914 10 0 60303 14400.00000 0 22371335.911 9059382.599 -8242385.230 10 0 60303 15300.00000 0 21217440.165 8697032.201 -11156008.699 10 0 60303 16200.00000 0 19697013.558 8378547.556 -13852722.497 10 0 60303 17100.00000 0 17842062.498 8154767.164 -16279982.594 10 0 60303 18000.00000 0 15695970.491 8070146.705 -18390454.124 10 0 60303 18900.00000 0 13311870.297 8160693.571 -20142944.917 10 0 60303 19800.00000 0 10750617.191 8452269.102 -21503220.127 10 0 60303 20700.00000 0 8078447.320 8959331.926 -22444681.149 10 0 60303 21600.00000 0 5364418.583 9684177.191 -22948894.822 10 0 60303 22500.00000 0 2677740.795 10616705.357 -23005961.876 10 0 60303 23400.00000 0 85106.791 11734731.703 -22614716.840 10 0 60303 24300.00000 0 -2351863.925 13004824.550 -21782755.046 10 0 60303 25200.00000 0 -4578962.028 14383637.606 -20526285.875 10 0 60303 26100.00000 0 -6551408.041 15819680.579 -18869814.951 10 0 60303 27000.00000 0 -8235470.632 17255453.385 -16845661.527 10 0 60303 27900.00000 0 -9609616.443 18629853.606 -14493320.693 10 0 60303 28800.00000 0 -10665144.293 19880755.004 -11858683.381 10 0 60303 29700.00000 0 -11406278.666 20947647.573 -8993130.091 10 0 60303 30600.00000 0 -11849720.443 21774226.929 -5952516.938 10 0 60303 31500.00000 0 -12023676.044 22310823.058 -2796074.937 10 0 60303 32400.00000 0 -11966408.275 22516565.470 414754.829 10 0 60303 33300.00000 0 -11724372.499 22361193.238 3617526.303 10 0 60303 34200.00000 0 -11350019.062 21826433.773 6750009.251 10 0 60303 35100.00000 0 -10899356.803 20906892.717 9751401.217 10 0 60303 36000.00000 0 -10429382.050 19610418.306 12563506.652 10 0 60303 36900.00000 0 -9995482.617 17957925.734 15131860.235 10 0 60303 37800.00000 0 -9648926.755 15982689.849 17406773.046 10 0 60303 38700.00000 0 -9434542.700 13729136.503 19344282.197 10 0 60303 39600.00000 0 -9388685.944 11251183.550 20906986.723 10 0 60303 40500.00000 0 -9537578.759 8610200.709 22064755.071 10 0 60303 41400.00000 0 -9896090.701 5872672.751 22795292.135 10 0 60303 42300.00000 0 -10467010.229 3107662.216 23084556.406 10 0 60303 43200.00000 0 -11240837.258 384175.528 22927020.574 10 0 60303 44100.00000 0 -12196104.969 -2231460.070 22325771.583 10 0 60303 45000.00000 0 -13300217.535 -4678102.022 21292448.791 10 0 60303 45900.00000 0 -14510769.302 -6902078.710 19847021.555 10 0 60303 46800.00000 0 -15777291.329 -8859163.625 18017410.157 10 0 60303 47700.00000 0 -17043353.520 -10516157.322 15838956.578 10 0 60303 48600.00000 0 -18248935.904 -11852012.820 13353754.168 10 0 60303 49500.00000 0 -19332971.201 -12858458.658 10609847.792 10 0 60303 50400.00000 0 -20235953.343 -13540094.129 7660318.443 10 0 60303 51300.00000 0 -20902503.371 -13913952.956 4562268.635 10 0 60303 52200.00000 0 -21283785.300 -14008553.500 1375726.993 10 0 60303 53100.00000 0 -21339670.197 -13862475.034 -1837507.655 10 0 60303 54000.00000 0 -21040556.622 -13522519.508 -5015060.835 10 0 60303 54900.00000 0 -20368769.493 -13041535.875 -8095192.712 10 0 60303 55800.00000 0 -19319476.701 -12475998.502 -11018000.397 10 0 60303 56700.00000 0 -17901082.812 -11883442.005 -13726588.505 10 0 60303 57600.00000 0 -16135081.063 -11319861.184 -16168184.546 10 0 60303 58500.00000 0 -14055367.648 -10837186.671 -18295176.561 10 0 60303 59400.00000 0 -11707045.061 -10480943.957 -20066051.963 10 0 60303 60300.00000 0 -9144762.901 -10288195.912 -21446218.341 10 0 60303 61200.00000 0 -6430664.313 -10285857.095 -22408689.361 10 0 60303 62100.00000 0 -3632023.012 -10489452.441 -22934621.604 10 0 60303 63000.00000 0 -818669.100 -10902374.047 -23013691.145 10 0 60303 63900.00000 0 1939688.990 -11515668.597 -22644301.938 10 0 60303 64800.00000 0 4576134.592 -12308365.297 -21833621.421 10 0 60303 65700.00000 0 7029093.350 -13248331.091 -20597442.348 10 0 60303 66600.00000 0 9244657.535 -14293617.285 -18959873.324 10 0 60303 67500.00000 0 11178587.090 -15394240.640 -16952864.115 10 0 60303 68400.00000 0 12797904.040 -16494323.250 -14615575.212 10 0 60303 69300.00000 0 14082014.216 -17534500.151 -11993604.442 10 0 60303 70200.00000 0 15023310.436 -18454491.973 -9138086.443 10 0 60303 71100.00000 0 15627233.424 -19195732.997 -6104683.467 10 0 60303 72000.00000 0 15911789.893 -19703942.598 -2952488.355 10 0 60303 72900.00000 0 15906550.359 -19931530.635 257137.753 10 0 60303 73800.00000 0 15651171.336 -19839734.704 3461769.149 10 0 60303 74700.00000 0 15193506.618 -19400398.816 6599136.183 10 0 60303 75600.00000 0 14587389.488 -18597318.632 9608338.245 10 0 60303 76500.00000 0 13890181.194 -17427097.033 12431025.051 10 0 60303 77400.00000 0 13160190.384 -15899474.664 15012523.216 10 0 60303 78300.00000 0 12454072.942 -14037122.303 17302886.682 10 0 60303 79200.00000 0 11824321.802 -11874904.371 19257851.489 10 0 60303 80100.00000 0 11316951.879 -9458644.836 20839677.595 10 0 60303 81000.00000 0 10969476.477 -6843447.051 22017862.963 10 0 60303 81900.00000 0 10809258.950 -4091637.146 22769717.715 10 0 60303 82800.00000 0 10852307.421 -1270415.628 23080788.803 10 0 60303 83700.00000 0 11102561.927 1550686.602 22945128.416 10 0 60303 84600.00000 0 11551702.930 4302444.069 22365401.943 10 0 60303 85500.00000 0 12179488.747 6918557.042 21352834.070 10 0 60304 0.00000 0 12954607.714 9338149.693 19926994.299 10 0 60304 900.00000 0 13836010.368 11508045.848 18115424.852 10 0 60304 1800.00000 0 14774665.699 13384726.585 15953119.343 10 0 60304 2700.00000 0 15715670.459 14935894.218 13481858.601 10 0 60304 3600.00000 0 16600623.413 16141575.470 10749416.900 10 0 60304 4500.00000 0 17370166.469 16994719.869 7808651.820 10 0 60304 5400.00000 0 17966586.849 17501268.412 4716494.046 10 0 60304 6300.00000 0 18336371.448 17679689.537 1532855.427 10 0 60304 7200.00000 0 18432605.884 17560001.451 -1680524.459 10 0 60304 8100.00000 0 18217116.660 17182321.389 -4861271.474 10 0 60304 9000.00000 0 17662265.082 16595002.287 -7947586.932 10 0 60304 9900.00000 0 16752315.663 15852434.941 -10879450.786 10 0 60304 10800.00000 0 15484319.370 15012608.133 -13599794.233 10 0 60304 11700.00000 0 13868472.167 14134529.699 -16055618.279 10 0 60304 12600.00000 0 11927931.403 13275617.816 -18199035.660 10 0 60304 13500.00000 0 9698095.418 12489173.263 -19988214.952 10 0 60304 14400.00000 0 7225374.456 11822040.265 -21388207.582 10 0 60304 15300.00000 0 4565502.657 11312555.723 -22371640.706 10 0 60304 16200.00000 0 1781460.400 10988874.470 -22919261.657 10 0 60304 17100.00000 0 -1058907.076 10867742.289 -23020322.627 10 0 60304 18000.00000 0 -3885475.753 10953769.402 -22672797.446 10 0 60304 18900.00000 0 -6628525.857 11239235.758 -21883425.752 10 0 60304 19800.00000 0 -9221409.746 11704436.772 -20667583.341 10 0 60304 20700.00000 0 -11603093.103 12318554.982 -19048981.022 10 0 60304 21600.00000 0 -13720463.176 13041020.534 -17059197.872 10 0 60304 22500.00000 0 -15530307.639 13823302.461 -14737058.193 10 0 60304 23400.00000 0 -17000881.626 14611054.117 -12127864.817 10 0 60304 24300.00000 0 -18112998.044 15346520.997 -9282504.387 10 0 60304 25200.00000 0 -18860596.663 15971107.908 -6256443.009 10 0 60304 26100.00000 0 -19250769.655 16427995.689 -3108632.961 10 0 60304 27000.00000 0 -19303244.581 16664695.746 99647.008 10 0 60304 27900.00000 0 -19049348.773 16635433.550 3305994.027 10 0 60304 28800.00000 0 -18530501.127 16303259.821 6448101.560 10 0 60304 29700.00000 0 -17796297.065 15641800.099 9464973.389 10 0 60304 30600.00000 0 -16902269.377 14636569.030 12298107.056 10 0 60304 31500.00000 0 -15907420.762 13285794.439 14892623.653 10 0 60304 32400.00000 0 -14871632.972 11600717.069 17198322.450 10 0 60304 33300.00000 0 -13853061.847 9605353.957 19170640.755 10 0 60304 34200.00000 0 -12905627.493 7335735.749 20771501.597 10 0 60304 35100.00000 0 -12076704.106 4838649.907 21970034.344 10 0 60304 36000.00000 0 -11405105.117 2169941.904 22743155.907 10 0 60304 36900.00000 0 -10919446.593 -607555.632 23076002.896 10 0 60304 37800.00000 0 -10636955.915 -3426380.980 22962207.767 10 0 60304 38700.00000 0 -10562774.218 -6216992.385 22404014.689 10 0 60304 39600.00000 0 -10689780.766 -8910404.265 21412233.542 10 0 60304 40500.00000 0 -10998946.011 -11440803.387 20006033.078 10 0 60304 41400.00000 0 -11460198.462 -13748038.631 18212576.917 10 0 60304 42300.00000 0 -12033769.459 -15779882.923 16066508.604 10 0 60304 43200.00000 0 -12671960.231 -17493975.052 13609294.574 10 0 60304 44100.00000 0 -13321258.145 -18859361.857 10888436.308 10 0 60304 45000.00000 0 -13924714.331 -19857577.280 7956565.511 10 0 60304 45900.00000 0 -14424483.710 -20483213.586 4870438.371 10 0 60304 46800.00000 0 -14764421.170 -20743960.774 1689847.147 10 0 60304 47700.00000 0 -14892624.802 -20660112.087 -1523530.759 10 0 60304 48600.00000 0 -14763818.643 -20263555.745 -4707324.550 10 0 60304 49500.00000 0 -14341473.634 -19596294.573 -7799679.748 10 0 60304 50400.00000 0 -13599575.865 -18708555.147 -10740462.235 10 0 60304 51300.00000 0 -12523965.690 -17656565.622 -13472432.848 10 0 60304 52200.00000 0 -11113189.010 -16500095.623 -15942369.053 10 0 60304 53100.00000 0 -9378822.427 -15299861.994 -18102111.045 10 0 60304 54000.00000 0 -7345256.105 -14114910.084 -19909511.039 10 0 60304 54900.00000 0 -5048941.066 -13000081.587 -21329266.369 10 0 60304 55800.00000 0 -2537130.385 -12003676.433 -22333619.248 10 0 60304 56700.00000 0 133834.689 -11165408.127 -22902908.781 10 0 60304 57600.00000 0 2900623.358 -10514739.547 -23025963.712 10 0 60304 58500.00000 0 5695311.683 -10069670.054 -22700327.629 10 0 60304 59400.00000 0 8447977.168 -9836025.551 -21932311.743 10 0 60304 60300.00000 0 11089383.232 -9807281.652 -20736873.798 10 0 60304 61200.00000 0 13553641.323 -9964927.334 -19137325.310 10 0 60304 62100.00000 0 15780739.235 -10279353.271 -17164872.801 10 0 60304 63000.00000 0 17718829.761 -10711226.575 -14858002.172 10 0 60304 63900.00000 0 19326183.966 -11213292.750 -12261718.706 10 0 60304 64800.00000 0 20572727.586 -11732527.358 -9426658.206 10 0 60304 65700.00000 0 21441096.950 -12212544.954 -6408087.504 10 0 60304 66600.00000 0 21927171.241 -12596161.855 -3264814.998 10 0 60304 67500.00000 0 22040060.404 -12828002.936 -58033.618 10 0 60304 68400.00000 0 21801551.136 -12857040.974 3149880.033 10 0 60304 69300.00000 0 21245036.461 -12638960.307 6296585.835 10 0 60304 70200.00000 0 20413976.128 -12138244.386 9320995.044 10 0 60304 71100.00000 0 19359954.680 -11329898.960 12164455.786 10 0 60304 72000.00000 0 18140420.618 -10200738.409 14771886.011 10 0 60304 72900.00000 0 16816202.941 -8750181.460 17092832.280 10 0 60304 73800.00000 0 15448909.997 -6990523.299 19082434.713 10 0 60304 74700.00000 0 14098319.816 -4946673.063 20702280.531 10 0 60304 75600.00000 0 12819870.696 -2655367.841 21921131.219 10 0 60304 76500.00000 0 11662355.961 -163895.804 22715510.803 10 0 60304 77400.00000 0 10665917.857 2471618.941 23070145.491 10 0 60304 78300.00000 0 9860422.734 5188299.467 22978247.572 10 0 60304 79200.00000 0 9264283.719 7918882.105 22441639.215 10 0 60304 80100.00000 0 8883778.602 10594269.015 21470714.372 10 0 60304 81000.00000 0 8712890.305 13146163.437 20084239.783 10 0 60304 81900.00000 0 8733675.915 15509680.334 18308998.521 10 0 60304 82800.00000 0 8917148.648 17625826.012 16179282.264 10 0 60304 83700.00000 0 9224636.067 19443745.421 13736240.943 10 0 60304 84600.00000 0 9609558.191 20922644.964 11027100.981 10 0 60304 85500.00000 0 10019551.643 22033311.568 8104265.790 10 0 60305 0.00000 0 10398851.347 22759164.939 5024314.814 10 0 60305 900.00000 0 10690830.384 23096799.278 1846917.558 10 0 60305 1800.00000 0 10840590.852 23055990.392 -1366313.127 10 0 60305 2700.00000 0 10797497.077 22659168.458 -4553012.401 10 0 60305 3600.00000 0 10517543.157 21940376.645 -7651272.517 10 0 60305 4500.00000 0 9965453.985 20943758.901 -10600847.656 10 0 60305 5400.00000 0 9116429.377 19721639.696 -13344330.457 10 0 60305 6300.00000 0 7957455.684 18332275.941 -15828276.782 10 0 60305 7200.00000 0 6488127.196 16837375.471 -18004255.982 10 0 60305 8100.00000 0 4720940.242 15299486.560 -19829805.370 10 0 60305 9000.00000 0 2681045.092 13779368.639 -21269269.418 10 0 60305 9900.00000 0 405463.748 12333455.396 -22294506.408 10 0 60305 10800.00000 0 -2058195.595 11011517.618 -22885447.977 10 0 60305 11700.00000 0 -4653475.238 9854624.765 -23030499.903 10 0 60305 12600.00000 0 -7317184.272 8893491.607 -22726775.685 10 0 60305 13500.00000 0 -9981806.717 8147279.893 -21980157.848 10 0 60305 14400.00000 0 -12578101.162 7622905.584 -20805185.405 10 0 60305 15300.00000 0 -15037783.193 7314880.639 -19224769.448 10 0 60305 16200.00000 0 -17296178.231 7205695.443 -17269742.390 10 0 60305 17100.00000 0 -19294733.548 7266724.805 -14978249.817 10 0 60305 18000.00000 0 -20983284.014 7459618.029 -12394997.287 10 0 60305 18900.00000 0 -22321976.694 7738112.794 -9570367.399 10 0 60305 19800.00000 0 -23282773.880 8050194.464 -6559425.266 10 0 60305 20700.00000 0 -23850472.206 8340507.726 -3420832.927 10 0 60305 21600.00000 0 -24023196.184 8552916.797 -215695.010 10 0 60305 22500.00000 0 -23812346.998 8633104.372 2993640.601 10 0 60305 23400.00000 0 -23242010.538 8531098.133 6144802.651 10 0 60305 24300.00000 0 -22347851.603 8203617.152 9176612.292 10 0 60305 25200.00000 0 -21175542.768 7616138.623 12030270.642 10 0 60305 26100.00000 0 -19778795.716 6744597.651 14650494.850 10 0 60305 27000.00000 0 -18217079.125 5576648.690 16986581.013 10 0 60305 27900.00000 0 -16553119.692 4112435.970 18993374.136 10 0 60305 28800.00000 0 -14850291.305 2364840.970 20632127.482 10 0 60305 29700.00000 0 -13170001.223 359196.823 21871236.195 10 0 60305 30600.00000 0 -11569181.589 -1867518.451 22686832.615 10 0 60305 31500.00000 0 -10097989.597 -4267976.632 23063233.361 10 0 60305 32400.00000 0 -8797810.546 -6786228.831 22993230.984 10 0 60305 33300.00000 0 -7699645.185 -9359799.232 22478225.658 10 0 60305 34200.00000 0 -6822946.819 -11922057.687 21528195.039 10 0 60305 35100.00000 0 -6174955.127 -14404774.518 20161503.081 10 0 60305 36000.00000 0 -5750553.312 -16740753.503 18404551.191 10 0 60305 36900.00000 0 -5532653.832 -18866435.575 16291277.713 10 0 60305 37800.00000 0 -5493096.326 -20724366.769 13862514.311 10 0 60305 38700.00000 0 -5594020.255 -22265429.115 11165210.320 10 0 60305 39600.00000 0 -5789655.169 -23450742.416 8251538.637 10 0 60305 40500.00000 0 -6028453.967 -24253158.000 5177899.015 10 0 60305 41400.00000 0 -6255480.018 -24658281.945 2003836.822 10 0 60305 42300.00000 0 -6414947.976 -24664984.415 -1209102.760 10 0 60305 43200.00000 0 -6452811.215 -24285372.913 -4398563.492 10 0 60305 44100.00000 0 -6319286.331 -23544229.507 -7502587.071 10 0 60305 45000.00000 0 -5971207.249 -22477934.501 -10460818.728 10 0 60305 45900.00000 0 -5374108.170 -21132920.749 -13215685.683 10 0 60305 46800.00000 0 -4503945.610 -19563722.641 -15713524.928 10 0 60305 47700.00000 0 -3348384.692 -17830701.224 -17905637.582 10 0 60305 48600.00000 0 -1907593.076 -15997540.728 -19749248.455 10 0 60305 49500.00000 0 -194506.573 -14128621.691 -21208351.242 10 0 60305 50400.00000 0 1765447.127 -12286381.301 -22254421.975 10 0 60305 51300.00000 0 3935157.239 -10528772.230 -22866986.045 10 0 60305 52200.00000 0 6267139.130 -8906927.152 -23034026.989 10 0 60305 53100.00000 0 8705290.614 -7463127.492 -22752228.445 10 0 60305 54000.00000 0 11187022.710 -6229162.016 -22027044.025 10 0 60305 54900.00000 0 13645676.275 -5225144.294 -20872593.338 10 0 60305 55800.00000 0 16013123.425 -4458838.511 -19311385.974 10 0 60305 56700.00000 0 18222444.703 -3925521.369 -17373878.762 10 0 60305 57600.00000 0 20210569.537 -3608384.902 -15097875.116 10 0 60305 58500.00000 0 21920768.887 -3479461.847 -12527778.611 10 0 60305 59400.00000 0 23304895.300 -3501032.866 -9713716.005 10 0 60305 60300.00000 0 24325276.293 -3627454.263 -6710547.721 10 0 60305 61200.00000 0 24956181.833 -3807326.942 -3576786.177 10 0 60305 62100.00000 0 25184804.942 -3985912.875 -373444.282 10 0 60305 63000.00000 0 25011715.342 -4107695.021 2837162.293 10 0 60305 63900.00000 0 24450768.487 -4118970.849 5992634.562 10 0 60305 64800.00000 0 23528475.559 -3970368.591 9031706.804 10 0 60305 65700.00000 0 22282862.701 -3619179.162 11895436.059 10 0 60305 66600.00000 0 20761869.109 -3031404.947 14528341.266 10 0 60305 67500.00000 0 19021352.674 -2183439.144 16879470.261 10 0 60305 68400.00000 0 17122787.732 -1063305.264 18903374.741 10 0 60305 69300.00000 0 15130751.790 328594.858 20560975.423 10 0 60305 70200.00000 0 13110306.110 1979255.553 21820302.153 10 0 60305 71100.00000 0 11124378.722 3863373.573 22657096.247 10 0 60305 72000.00000 0 9231257.740 5944173.467 23055265.026 10 0 60305 72900.00000 0 7482297.678 8174718.244 23007181.200 10 0 60305 73800.00000 0 5919932.325 10499651.741 22513822.462 10 0 60305 74700.00000 0 4576074.946 12857301.618 21584749.282 10 0 60305 75600.00000 0 3470970.536 15182057.250 20237921.562 10 0 60305 76500.00000 0 2612546.390 17406925.596 18499357.412 10 0 60305 77400.00000 0 1996286.917 19466160.642 16402639.890 10 0 60305 78300.00000 0 1605637.204 21297858.804 13988280.182 10 0 60305 79200.00000 0 1412918.192 22846413.648 11302948.094 10 0 60305 80100.00000 0 1380715.203 24064728.577 8398583.384 10 0 60305 81000.00000 0 1463681.938 24916095.629 5331403.636 10 0 60305 81900.00000 0 1610684.535 25375661.823 2160826.670 10 0 60305 82800.00000 0 1767195.845 25431421.133 -1051672.616 10 0 60305 83700.00000 0 1877839.161 25084689.593 -4243749.453 10 0 60305 84600.00000 0 1888973.935 24350042.407 -7353397.748 10 0 60305 85500.00000 0 1751213.679 23254714.281 -10320156.387 10 0 60306 0.00000 0 1421768.733 21837486.992 -13086289.319 10 0 60306 900.00000 0 866513.207 20147108.796 -15597917.288 10 0 60306 1800.00000 0 61687.426 18240313.066 -17806074.785 10 0 60306 2700.00000 0 -1004838.702 16179516.107 -19667675.701 10 0 60306 3600.00000 0 -2332796.634 14030292.199 -21146364.270 10 0 60306 4500.00000 0 -3909279.348 11858731.047 -22213235.320 10 0 60306 5400.00000 0 -5709042.999 9728788.733 -22847408.745 10 0 60306 6300.00000 0 -7695339.434 7699743.499 -23036446.280 10 0 60306 7200.00000 0 -9821246.206 5823863.405 -22776601.757 10 0 60306 8100.00000 0 -12031439.513 4144383.886 -22072899.507 10 0 60306 9000.00000 0 -14264336.462 2693880.085 -20939038.906 10 0 60306 9900.00000 0 -16454517.131 1493102.071 -19397126.739 10 0 60306 10800.00000 0 -18535324.823 550321.262 -17477242.506 10 0 60306 11700.00000 0 -20441535.102 -138785.405 -15216845.322 10 0 60306 12600.00000 0 -22111981.093 -590710.082 -12660034.354 10 0 60306 13500.00000 0 -23492024.338 -833167.000 -9856677.912 10 0 60306 14400.00000 0 -24535767.013 -903665.823 -6861428.995 10 0 60306 15300.00000 0 -25207912.407 -847667.754 -3732647.647 10 0 60306 16200.00000 0 -25485195.649 -716404.560 -531252.299 10 0 60306 17100.00000 0 -25357325.175 -564454.816 2680476.310 10 0 60306 18000.00000 0 -24827396.326 -447181.766 5840114.145 10 0 60306 18900.00000 0 -23911761.051 -418142.642 8886311.219 10 0 60306 19800.00000 0 -22639360.703 -526579.990 11759983.025 10 0 60306 20700.00000 0 -21050551.526 -815101.549 14405452.689 10 0 60306 21600.00000 0 -19195473.468 -1317646.678 16771521.996 10 0 60306 22500.00000 0 -17132031.718 -2057824.772 18812451.296 10 0 60306 23400.00000 0 -14923576.009 -3047695.103 20488830.406 10 0 60306 24300.00000 0 -12636374.601 -4287038.792 21768325.146 10 0 60306 25200.00000 0 -10336987.714 -5763153.020 22626286.677 10 0 60306 26100.00000 0 -8089648.679 -7451175.943 23046213.470 10 0 60306 27000.00000 0 -5953760.146 -9314928.972 23020058.429 10 0 60306 27900.00000 0 -3981607.513 -11308241.955 22548376.413 10 0 60306 28800.00000 0 -2216382.558 -13376707.143 21640309.989 10 0 60306 29700.00000 0 -690597.382 -15459790.351 20313413.962 10 0 60306 30600.00000 0 575047.201 -17493213.190 18593321.794 10 0 60306 31500.00000 0 1572293.196 -19411508.934 16513259.641 10 0 60306 32400.00000 0 2305431.642 -21150647.350 14113416.322 10 0 60306 33300.00000 0 2790879.688 -22650620.516 11440180.012 10 0 60306 34200.00000 0 3056246.454 -23857882.852 8545255.037 10 0 60306 35100.00000 0 3138926.709 -24727544.002 5484674.383 10 0 60306 36000.00000 0 3084281.129 -25225222.939 2317725.805 10 0 60306 36900.00000 0 2943479.286 -25328485.137 -894188.659 10 0 60306 37800.00000 0 2771096.012 -25027801.650 -4088738.297 10 0 60306 38700.00000 0 2622562.476 -24326988.492 -7203871.815 10 0 60306 39600.00000 0 2551579.900 -23243106.354 -10179024.335 10 0 60306 40500.00000 0 2607605.906 -21805823.174 -12956299.537 10 0 60306 41400.00000 0 2833520.805 -20056264.773 -15481603.384 10 0 60306 42300.00000 0 3263574.002 -18045400.394 -17705706.574 10 0 60306 43200.00000 0 3921699.031 -15832029.759 -19585214.195 10 0 60306 44100.00000 0 4820270.465 -13480455.295 -21083422.843 10 0 60306 45000.00000 0 5959357.241 -11057936.616 -22171047.603 10 0 60306 45900.00000 0 7326506.012 -8632033.763 -22826803.928 10 0 60306 46800.00000 0 8897065.620 -6267950.474 -23037832.348 10 0 60306 47700.00000 0 10635040.697 -4025988.934 -22799957.064 10 0 60306 48600.00000 0 12494439.849 -1959222.724 -22117772.861 10 0 60306 49500.00000 0 14421062.666 -111485.478 -21004558.235 10 0 60306 50400.00000 0 16354650.915 1484240.577 -19482016.138 10 0 60306 51300.00000 0 18231313.602 2806969.119 -17579847.367 10 0 60306 52200.00000 0 19986123.689 3848340.064 -15335164.990 10 0 60306 53100.00000 0 21555776.777 4612710.470 -12791761.686 10 0 60306 54000.00000 0 22881199.284 5116703.842 -9999244.871 10 0 60306 54900.00000 0 23909995.802 5388238.811 -7012057.379 10 0 60306 55800.00000 0 24598632.157 5465080.384 -3888403.868 10 0 60306 56700.00000 0 24914262.128 5392977.270 -689105.115 10 0 60306 57600.00000 0 24836121.129 5223466.318 2523596.310 10 0 60306 58500.00000 0 24356428.753 5011438.983 5687254.512 10 0 60306 59400.00000 0 23480763.166 4812574.489 8740438.283 10 0 60306 60300.00000 0 22227892.783 4680749.534 11623924.375 10 0 60306 61200.00000 0 20629073.603 4665534.782 14281842.614 10 0 60306 62100.00000 0 18726842.941 4809884.118 16662750.941 10 0 60306 63000.00000 0 16573361.071 5148113.947 18720620.236 10 0 60306 63900.00000 0 14228370.826 5704257.116 20415710.976 10 0 60306 64800.00000 0 11756860.413 6490859.974 21715326.197 10 0 60306 65700.00000 0 9226526.464 7508272.406 22594427.828 10 0 60306 66600.00000 0 6705141.913 8744460.071 23036106.067 10 0 60306 67500.00000 0 4257936.632 10175346.526 23031894.234 10 0 60306 68400.00000 0 1945097.733 11765671.194 22581924.169 10 0 60306 69300.00000 0 -180508.768 13470328.041 21694919.929 10 0 60306 70200.00000 0 -2075302.458 15236130.256 20388030.186 10 0 60306 71100.00000 0 -3706559.644 17003928.801 18686502.296 10 0 60306 72000.00000 0 -5053527.476 18710998.132 16623203.669 10 0 60306 72900.00000 0 -6108036.037 20293591.230 14237998.584 10 0 60306 73800.00000 0 -6874583.821 21689558.811 11576991.160 10 0 60306 74700.00000 0 -7369893.466 22840924.457 8691647.661 10 0 60306 75600.00000 0 -7621956.469 23696308.705 5637813.711 10 0 60306 76500.00000 0 -7668606.759 24213100.809 2474644.139 10 0 60306 77400.00000 0 -7555682.759 24359286.770 -736534.768 10 0 60306 78300.00000 0 -7334854.971 24114856.073 -3933409.247 10 0 60306 79200.00000 0 -7061210.481 23472726.729 -7053885.627 10 0 60306 80100.00000 0 -6790696.402 22439148.090 -10037297.959 10 0 60306 81000.00000 0 -6577530.612 21033562.687 -12825591.947 10 0 60306 81900.00000 0 -6471689.988 19287930.973 -15364461.565 10 0 60306 82800.00000 0 -6516583.406 17245545.571 -17604415.503 10 0 60306 83700.00000 0 -6747009.313 14959383.228 -19501751.812 10 0 60306 84600.00000 0 -7187485.835 12490062.298 -21019420.946 10 0 60306 85500.00000 0 -7851025.784 9903490.507 -22127759.452 99